Sturgeon Bay, WI

10:41 PM CDT on October 20, 2019 (GMT -0500)
Door County Cherryland

Weather History for KSUE - August, 2019

Change the Weather History Date:

Thursday, August 15, 2019

  Actual Average Record
Temperature  
Mean Temperature 64 °F -  
Max Temperature 73 °F 76 °F 94 °F (1965)
Min Temperature 55 °F 56 °F 43 °F (1927)
Degree Days  
Heating Degree Days 1    
Growing Degree Days 14 (Base 50)    
Moisture  
Dew Point 56 °F    
Average Humidity 74    
Maximum Humidity 93    
Minimum Humidity 55    
Precipitation  
Precipitation 0.00 in - - ()
Sea Level Pressure  
Sea Level Pressure 30.02 in    
Wind  
Wind Speed 3 mph (NE)    
Max Wind Speed 8 mph    
Max Gust Speed -    
Visibility 10 miles    
Events      
Averages and records for this station are not official NWS values.
T = Trace of Precipitation, MM = Missing Value Source: NWS Daily Summary

Daily Weather History Graph

Daily Weather History Graph

Search for Another Location

Airport or City:

Astronomy

Aug. 15, 2019 Rise Set
Actual Time 5:51 AM CDT 7:56 PM CDT
Civil Twilight 5:19 AM CDT 8:27 PM CDT
Nautical Twilight 4:40 AM CDT 9:06 PM CDT
Astronomical Twilight 3:56 AM CDT 9:49 PM CDT
Moon 8:25 PM CDT (8/15) 5:43 AM CDT (8/15)
Length of Visible Light 15h 08m
Length of Day
14h 04m
Full, 100% of the Moon is Illuminated
Aug 15
Full
Aug 23
Last Quarter
Aug 30
New
Sep 5
First Quarter
Sep 13
Full

Hourly Weather History & Observations

Time (CDT) Temp. Dew Point Humidity Pressure Visibility Wind Dir Wind Speed Gust Speed Precip Events Conditions
12:56 AM 62.1 °F 55.0 °F 78% 30.05 in 10.0 mi Calm Calm - N/A   Overcast
1:56 AM 62.1 °F 55.0 °F 78% 30.04 in 10.0 mi North 4.6 mph - N/A   Overcast
2:56 AM 57.9 °F 54.0 °F 87% 30.04 in 10.0 mi Calm Calm - N/A   Partly Cloudy
3:56 AM 57.9 °F 55.0 °F 90% 30.03 in 10.0 mi North 3.5 mph - N/A   Scattered Clouds
4:56 AM 59.0 °F 54.0 °F 83% 30.03 in 10.0 mi Calm Calm - N/A   Clear
5:56 AM 55.9 °F 54.0 °F 93% 30.03 in 10.0 mi Calm Calm - N/A   Clear
6:56 AM 57.0 °F 54.0 °F 89% 30.04 in 10.0 mi Calm Calm - N/A   Clear
7:56 AM 64.9 °F 57.9 °F 78% 30.04 in 10.0 mi North 5.8 mph - N/A   Clear
8:56 AM 66.9 °F 55.9 °F 68% 30.05 in 10.0 mi NNW 5.8 mph - N/A   Clear
9:56 AM 66.9 °F 55.9 °F 68% 30.06 in 10.0 mi NNW 6.9 mph - N/A   Overcast
10:56 AM 69.1 °F 55.0 °F 61% 30.05 in 10.0 mi Variable 3.5 mph - N/A   Clear
11:56 AM 70.0 °F 55.0 °F 59% 30.03 in 10.0 mi NNW 5.8 mph - N/A   Clear
12:56 PM 71.1 °F 55.9 °F 59% 30.02 in 10.0 mi NNW 6.9 mph - N/A   Clear
1:56 PM 71.1 °F 55.9 °F 59% 30.01 in 10.0 mi West 3.5 mph - N/A   Clear
2:56 PM 73.0 °F 55.9 °F 55% 30.01 in 10.0 mi East 3.5 mph - N/A   Clear
3:56 PM 73.0 °F 57.9 °F 59% 29.99 in 10.0 mi Variable 5.8 mph - N/A   Clear
4:56 PM 71.1 °F 60.1 °F 68% 29.99 in 10.0 mi ESE 8.1 mph - N/A   Partly Cloudy
5:56 PM 70.0 °F 59.0 °F 68% 29.98 in 10.0 mi SE 6.9 mph - N/A   Clear
6:56 PM 68.0 °F 57.9 °F 70% 29.98 in 10.0 mi SSE 5.8 mph - N/A   Clear
7:56 PM 64.9 °F 57.9 °F 78% 29.97 in 10.0 mi SSE 4.6 mph - N/A   Clear
8:56 PM 63.0 °F 57.9 °F 84% 29.98 in 10.0 mi SSE 5.8 mph - N/A   Clear
10:56 PM 62.1 °F 57.0 °F 84% 29.97 in 10.0 mi South 5.8 mph - N/A   Clear
11:56 PM 61.0 °F 57.0 °F 87% 29.97 in 10.0 mi South 6.9 mph - N/A   Clear